[[{"header":{"parameterUnit":"m.s-1","parameterCategory":2,"la1":30.2991,"la2":30.254,"lo1":-89.0895,"lo2":-89.0444,"dy":0.0017,"dx":0.0017,"nx":28,"ny":28,"refTime":"2025-11-05T03:00:00:Z","depth":"0","parameterNumber":2,"parameterNumberName":"U-component_of_CURRENTS"},"data":[0,0,0,0,0,0,0,0,0,0,0,0,0,0,0,0,0,0,0,0,0,0,0,0,0,0,0,0,0,0,0,0,0,0,0,0,0,0,0,0,0,0,0,0,0,0,0,0,0,0,0,0,0,0,0,0,0,0,0.334,0.334,0,0.3321,0.3321,0.3321,0.332,0.332,0.3321,0.3321,0.3329,0.3329,0.3329,0,0,0,0,0,0,0,0,0,0,0,0,0,0.3381,0.338,0.334,0.334,0.334,0.3321,0.3321,0.3321,0.332,0.332,0.3321,0.3321,0.3329,0.3329,0.3329,0,0,0,0,0,0,0,0,0,0,0,0,0,0.3361,0.338,0.334,0.3338,0.3338,0.3322,0.3321,0.3321,0.332,0.332,0.3321,0.3321,0.3329,0.3329,0.3329,0.3317,0,0,0.3328,0.3328,0,0,0,0,0,0,0,0,0.3362,0.3359,0.3338,0.3338,0.3338,0.3325,0.3339,0.3321,0.332,0.3325,0.3321,0.3322,0.3331,0.3331,0.3323,0.3317,0.3318,0.3328,0.3328,0.3328,0.3328,0,0,0,0,0,0,0,0.3364,0.336,0.3331,0.3338,0.3338,0.3341,0.3338,0.3335,0.3324,0.3325,0.3325,0.3325,0.3331,0.3323,0.3323,0.3318,0.3328,0.3328,0.3328,0.3328,0.3329,0.3329,0,0,0,0,0,0,0.3368,0.3361,0.3331,0.333,0.3354,0.334,0.3337,0.3327,0.3324,0.3324,0.3325,0.3325,0.3323,0.3324,0.3324,0.3355,0.3328,0.3328,0.3328,0.3329,0.3329,0.3329,0,0,0,0,0,0,0.3369,0.3365,0.3332,0.3348,0.3344,0.3339,0.3328,0.3327,0.3326,0.3324,0.3324,0.3326,0.3324,0.3324,0.3322,0.3354,0.3328,0.3328,0.3329,0.3329,0.3329,0.3389,0,0,0,0,0,0,0.337,0.3365,0.3361,0.3347,0.3343,0.3334,0.3327,0.3326,0.3325,0.3326,0.3325,0.3326,0.3324,0.3322,0.3322,0.3353,0.3327,0.3328,0.3329,0.3329,0.3387,0.3392,0.3395,0,0,0,0,0,0.3371,0.3361,0.336,0.3357,0.3336,0.3335,0.3333,0.333,0.3325,0.333,0.3321,0.3326,0.3324,0.3322,0.3321,0.3354,0.3328,0.3329,0.3329,0.3385,0.3391,0.3395,0,0,0,0,0,0,0.3373,0.336,0.3359,0.3344,0.3347,0.3336,0.3336,0.3332,0.3327,0.3327,0.3321,0.3322,0.334,0.3325,0.3323,0.3352,0.333,0.333,0.3373,0.3378,0.3382,0.3422,0.3327,0,0,0,0,0,0.3372,0.3363,0.3358,0.3349,0.335,0.3344,0.3342,0.3342,0.3335,0.3334,0.3331,0.3328,0.3339,0.334,0.3344,0.3348,0.3372,0.3368,0.3372,0.3376,0.3407,0.3473,0.3487,0.333,0.333,0.333,0,0,0.3368,0.3363,0.3356,0.335,0.3348,0.3357,0.3344,0.3346,0.3357,0.3335,0.3344,0.3346,0.3343,0.336,0.3367,0.3352,0.3425,0.3377,0.338,0.3409,0.3475,0.3491,0.3505,0.333,0.333,0.333,0,0,0.3362,0.3355,0.335,0.3357,0.3363,0.3366,0.3369,0.3364,0.3368,0.3369,0.337,0.3391,0.3377,0.3402,0.3408,0.3433,0.345,0.3424,0.3477,0.354,0.3555,0.3568,0.3592,0.3607,0.3421,0.3421,0.3421,0,0.3362,0.3351,0.335,0.3358,0.3366,0.3373,0.338,0.3389,0.3385,0.3403,0.3379,0.3415,0.3408,0.3465,0.3473,0.345,0.3473,0.3461,0.3551,0.3564,0.3577,0.3598,0.3614,0.3424,0.3423,0.3423,0.3423,0,0.3355,0.3356,0.3357,0.337,0.3383,0.339,0.3408,0.3426,0.3427,0.3444,0.3492,0.3488,0.352,0.3516,0.35,0.3589,0.357,0.3556,0.3548,0.3598,0.3614,0.363,0.3428,0.3427,0.3426,0.3425,0,0,0.3326,0.3347,0.3347,0.3359,0.3389,0.3396,0.3435,0.3474,0.3517,0.3527,0.3585,0.3606,0.3627,0.3636,0.3633,0.368,0.3769,0.3658,0.366,0.3699,0.3892,0.3796,0.3803,0.3779,0.3782,0.3785,0.3859,0,0.3321,0.3331,0.3348,0.3371,0.3378,0.3416,0.3456,0.3503,0.3542,0.3604,0.3643,0.3692,0.3667,0.3689,0.3742,0.3773,0.3818,0.375,0.3824,0.3826,0.375,0.3821,0.3671,0.3718,0.3874,0.3877,0.3879,0,0.3301,0.3314,0.3325,0.3374,0.3384,0.3408,0.3487,0.3528,0.3635,0.3671,0.3753,0.3787,0.3875,0.3831,0.3943,0.3902,0.3912,0.3923,0.3926,0.3837,0.376,0.3697,0.3741,0.3639,0.3903,0.3901,0.3899,0,0.3262,0.3297,0.3304,0.3317,0.3377,0.3402,0.3446,0.3547,0.3605,0.3729,0.3797,0.3897,0.3953,0.4009,0.4032,0.4002,0.4141,0.4094,0.4017,0.4008,0.3897,0.3872,0.3871,0.4184,0.4184,0.4183,0.4183,0,0.3235,0.324,0.3286,0.3287,0.3325,0.338,0.345,0.3519,0.3643,0.3732,0.3835,0.3916,0.4006,0.4085,0.409,0.4109,0.4191,0.4058,0.4041,0.3905,0.3881,0.3798,0.375,0.4186,0.4186,0.4185,0.4185,0,0.3175,0.3203,0.3216,0.3277,0.33,0.3326,0.3437,0.3499,0.363,0.3754,0.38,0.396,0.4053,0.4122,0.4206,0.417,0.4073,0.4175,0.3988,0.3947,0.3739,0.3698,0.3578,0.347,0.4101,0.4099,0.4098,0,0.3136,0.3135,0.3194,0.3207,0.3227,0.3286,0.3335,0.3468,0.3541,0.3761,0.3813,0.3962,0.4042,0.4142,0.4107,0.4115,0.4009,0.3965,0.3876,0.3734,0.3679,0.3544,0.3452,0.3741,0.3737,0.3734,0.3731,0,0.3066,0.3089,0.3103,0.314,0.3176,0.3226,0.3304,0.3364,0.3533,0.3646,0.3772,0.386,0.397,0.3912,0.394,0.392,0.3761,0.389,0.3816,0.3468,0.3253,0.3137,0.3663,0.37,0.3704,0.3706,0.3707,0.3709,0.3008,0.3004,0.3031,0.3051,0.3098,0.3135,0.314,0.3245,0.3339,0.3454,0.3611,0.366,0.3718,0.3725,0.3694,0.3533,0.3524,0.3411,0.3395,0.3288,0.3113,0.3551,0.352,0.3522,0.3524,0.3525,0.3526,0,0.2915,0.2918,0.2941,0.2956,0.2957,0.302,0.3087,0.3071,0.3114,0.3242,0.3312,0.3321,0.3297,0.3322,0.3231,0.3078,0.295,0.2981,0.2781,0.2733,0.3198,0.3112,0.2903,0.2903,0.2903,0.2903,0.2903,0.2903,0.2865,0.2832,0.2837,0.2793,0.2807,0.2765,0.2767,0.2773,0.2821,0.2809,0.2792,0.2847,0.2984,0.2982,0.2838,0.2762,0.2545,0.2401,0.2408,0.2766,0.2805,0.2842,0.2751,0.247,0.2469,0.1831,0.1826,0.1823]},{"header":{"parameterUnit":"m.s-1","parameterCategory":2,"la1":30.2991,"la2":30.254,"lo1":-89.0895,"lo2":-89.0444,"dy":0.0017,"dx":0.0017,"nx":28,"ny":28,"refTime":"2025-11-05T03:00:00:Z","depth":"0","parameterNumber":3,"parameterNumberName":"V-component_of_CURRENTS"},"data":[0,0,0,0,0,0,0,0,0,0,0,0,0,0,0,0,0,0,0,0,0,0,0,0,0,0,0,0,0,0,0,0,0,0,0,0,0,0,0,0,0,0,0,0,0,0,0,0,0,0,0,0,0,0,0,0,0,0,0.0137,0.0137,0,0.0087,0.0086,0.0086,0.0039,0.0039,0.0038,0.0038,-0.0064,-0.0066,-0.0068,0,0,0,0,0,0,0,0,0,0,0,0,0,0.013,0.013,0.0137,0.0136,0.0136,0.0087,0.0086,0.0085,0.0039,0.0039,0.0038,0.0038,-0.0063,-0.0066,-0.0069,0,0,0,0,0,0,0,0,0,0,0,0,0,0.0109,0.013,0.0137,0.0109,0.0107,0.0088,0.0086,0.0085,0.0039,0.0039,0.0038,0.0038,-0.0062,-0.0065,-0.0069,-0.0082,0,0,-0.008,-0.0082,0,0,0,0,0,0,0,0,0.011,0.0109,0.0114,0.0111,0.0108,0.0071,0.0047,0.0028,0.0039,0.0062,0.0038,0.0037,-0.0021,-0.0028,-0.004,-0.0087,-0.0091,-0.008,-0.0083,-0.0084,-0.0085,0,0,0,0,0,0,0,0.0112,0.0111,0.0114,0.0113,0.011,0.0079,0.0075,0.0043,0.002,0.006,0.0057,0.0056,-0.0023,-0.0036,-0.0043,-0.0093,-0.008,-0.0083,-0.0086,-0.0087,-0.014,-0.0139,0,0,0,0,0,0,0.0128,0.0113,0.0116,0.0113,0.0112,0.008,0.0076,0.0081,0.0022,0.0013,0.0057,0.0054,-0.003,-0.0038,-0.0046,-0.005,-0.0084,-0.0088,-0.009,-0.0141,-0.014,-0.0139,0,0,0,0,0,0,0.0128,0.0129,0.0118,0.0113,0.011,0.0081,0.0087,0.0081,0.0071,0.0021,0.001,0.0054,-0.003,-0.0041,-0.0062,-0.0055,-0.0089,-0.0092,-0.0142,-0.0141,-0.0139,-0.0067,0,0,0,0,0,0,0.0128,0.013,0.0137,0.0115,0.0111,0.0115,0.0087,0.008,0.0073,0.0069,0.0015,0.0005,-0.0032,-0.0056,-0.0066,-0.0061,-0.0095,-0.0143,-0.0141,-0.014,-0.0071,-0.0064,-0.0058,0,0,0,0,0,0.0128,0.0145,0.0138,0.0138,0.0123,0.0116,0.0111,0.0086,0.0073,0.0074,0.0044,0.0007,-0.0054,-0.0058,-0.007,-0.0066,-0.0143,-0.0142,-0.014,-0.0074,-0.0065,-0.0058,0,0,0,0,0,0,0.0143,0.0141,0.0133,0.0147,0.0136,0.0109,0.0108,0.0093,0.0069,0.0064,0.0016,0.0005,-0.0014,-0.0045,-0.0048,-0.0075,-0.0105,-0.0105,-0.005,-0.0043,-0.0037,-0.0015,-0.0098,0,0,0,0,0,0.0153,0.0164,0.0153,0.0163,0.0161,0.0136,0.0129,0.0115,0.0093,0.0081,0.0048,0.0013,-0.0015,-0.0032,-0.0064,-0.0077,-0.0094,-0.0081,-0.0075,-0.0069,-0.0058,-0.0071,-0.0065,-0.0133,-0.0133,-0.0133,0,0,0.016,0.0161,0.0166,0.0167,0.0154,0.0163,0.013,0.0127,0.0132,0.0074,0.0068,0.0031,-0.0014,-0.0029,-0.0039,-0.0053,-0.0057,-0.0067,-0.0062,-0.0053,-0.0069,-0.0062,-0.0056,-0.0132,-0.0132,-0.0133,0,0,0.0187,0.0183,0.0204,0.02,0.0194,0.0182,0.0187,0.0167,0.0154,0.0146,0.0107,0.0082,0.0038,0.001,-0.001,0.0013,-0.0025,0.0001,0.005,0.0037,0.0043,0.0047,0.0041,0.0045,0.0005,0.0006,0.0006,0,0.0197,0.0224,0.0207,0.0225,0.0231,0.0199,0.0222,0.0205,0.0181,0.018,0.0154,0.0104,0.0057,0.0048,0.0052,0.0026,0.0019,0.0024,0.0046,0.005,0.0054,0.0046,0.005,0.0009,0.0009,0.0008,0.0008,0,0.0241,0.026,0.0271,0.0288,0.0289,0.0302,0.0286,0.0279,0.026,0.0248,0.0233,0.0175,0.0147,0.0126,0.0092,0.0097,0.0084,0.0055,0.0029,0.0066,0.0055,0.0057,0.0015,0.0013,0.0012,0.0011,0,0,0.0275,0.03,0.0304,0.0327,0.0327,0.0337,0.0342,0.0348,0.0368,0.0325,0.0348,0.0281,0.0252,0.0227,0.018,0.0165,0.0173,0.0128,0.0126,0.0128,0.0158,0.0138,0.0137,0.0152,0.0153,0.0153,0.0143,0,0.0317,0.0373,0.037,0.0419,0.0448,0.0423,0.0438,0.0434,0.0423,0.0434,0.0374,0.037,0.029,0.0283,0.0253,0.0202,0.0181,0.0179,0.0119,0.0117,0.0098,0.014,0.0159,0.0151,0.0145,0.0145,0.0145,0,0.0367,0.04,0.0458,0.0499,0.0509,0.0528,0.0555,0.0568,0.0564,0.0555,0.0533,0.049,0.0457,0.0385,0.031,0.0317,0.0242,0.0194,0.0192,0.015,0.01,0.0111,0.0154,0.0029,0.0148,0.0148,0.0148,0,0.0414,0.0465,0.0518,0.053,0.0564,0.058,0.0599,0.0606,0.0642,0.0641,0.0674,0.0608,0.0598,0.05,0.0378,0.0351,0.0307,0.0251,0.016,0.0158,0.0151,0.0147,0.007,0.0193,0.0194,0.0194,0.0194,0,0.0469,0.0511,0.0544,0.0572,0.0642,0.064,0.0713,0.0715,0.0751,0.0829,0.0747,0.079,0.0629,0.0574,0.0439,0.0321,0.0346,0.0185,0.0159,0.0176,0.0175,0.0045,-0.0045,0.0193,0.0193,0.0193,0.0193,0,0.0514,0.0532,0.06,0.0646,0.0666,0.0718,0.0797,0.0853,0.0874,0.0975,0.0984,0.0941,0.0873,0.0709,0.0564,0.0416,0.0215,0.0234,0.0268,0.0246,0.0028,-0.0058,-0.0176,-0.0237,0.0138,0.0137,0.0137,0,0.0544,0.0582,0.0659,0.0709,0.0733,0.081,0.0868,0.0908,0.0985,0.1082,0.1142,0.11,0.1107,0.0882,0.0609,0.0382,0.0223,0.0224,0.0157,0.0035,-0.0081,-0.0147,-0.0195,0.0178,0.0178,0.0178,0.0178,0,0.0603,0.0626,0.0682,0.0785,0.0856,0.0952,0.1042,0.1122,0.12,0.1305,0.142,0.1438,0.122,0.0997,0.0655,0.0477,0.0132,0.0214,0.0083,-0.0054,-0.0125,-0.0201,0.0166,0.0178,0.0178,0.0178,0.0178,0.0178,0.0646,0.0698,0.077,0.0869,0.0959,0.1078,0.1175,0.1298,0.1453,0.1624,0.1624,0.17,0.1347,0.0889,0.0625,0.0146,0.012,-0.0002,-0.0093,-0.0146,-0.0217,0.0151,0.013,0.013,0.013,0.013,0.0129,0,0.0698,0.0756,0.0851,0.0969,0.1079,0.1115,0.1281,0.1399,0.1606,0.1769,0.1889,0.1773,0.135,0.0888,0.0237,-0.009,-0.0218,-0.0272,-0.0358,-0.0393,-0.0057,-0.0068,-0.0125,-0.0125,-0.0125,-0.0125,-0.0125,-0.0124,0.0726,0.0817,0.0864,0.1043,0.1135,0.1286,0.1389,0.1581,0.1731,0.1948,0.2013,0.2022,0.1663,0.054,-0.0195,-0.0363,-0.0597,-0.0657,-0.0774,-0.0547,-0.0529,-0.0511,-0.054,-0.0695,-0.0696,-0.105,-0.1054,-0.1056]}],[{"header":{"parameterUnit":"m.s-1","parameterCategory":2,"la1":30.2991,"la2":30.254,"lo1":-89.0895,"lo2":-89.0444,"dy":0.0017,"dx":0.0017,"nx":28,"ny":28,"refTime":"2025-11-05T03:00:00:Z","depth":"2","parameterNumber":2,"parameterNumberName":"U-component_of_CURRENTS"},"data":[0,0,0,0,0,0,0,0,0,0,0,0,0,0,0,0,0,0,0,0,0,0,0,0,0,0,0,0,0,0,0,0,0,0,0,0,0,0,0,0,0,0,0,0,0,0,0,0,0,0,0,0,0,0,0,0,0,0,0.2682,0.2683,0,0.2674,0.2673,0.2673,0.2657,0.2657,0.2657,0.2657,0.2637,0.2636,0.2636,0,0,0,0,0,0,0,0,0,0,0,0,0,0.2679,0.2679,0.2682,0.2683,0.2683,0.2674,0.2673,0.2673,0.2657,0.2657,0.2657,0.2657,0.2637,0.2636,0.2636,0,0,0,0,0,0,0,0,0,0,0,0,0,0.2673,0.2679,0.2682,0.2676,0.2675,0.2674,0.2673,0.2673,0.2657,0.2657,0.2657,0.2657,0.2637,0.2636,0.2636,0.2632,0,0,0.2633,0.2633,0,0,0,0,0,0,0,0,0.2674,0.2673,0.2677,0.2676,0.2676,0.2669,0.2665,0.266,0.2657,0.2661,0.2657,0.2657,0.2649,0.2647,0.2641,0.2631,0.2631,0.2633,0.2633,0.2633,0.2632,0,0,0,0,0,0,0,0.2674,0.2673,0.2676,0.2677,0.2676,0.2671,0.267,0.2664,0.2652,0.266,0.266,0.2664,0.2648,0.2642,0.2641,0.263,0.2633,0.2633,0.2632,0.2632,0.267,0.2671,0,0,0,0,0,0,0.2682,0.2674,0.2676,0.2676,0.2678,0.2672,0.267,0.2669,0.2653,0.2651,0.2664,0.2663,0.2643,0.2642,0.264,0.2675,0.2633,0.2632,0.2632,0.2669,0.267,0.2672,0,0,0,0,0,0,0.2681,0.2682,0.2677,0.2677,0.2677,0.2672,0.267,0.2669,0.2675,0.2656,0.2654,0.2674,0.2643,0.2641,0.265,0.2673,0.2632,0.2631,0.2667,0.2669,0.2671,0.272,0,0,0,0,0,0,0.2681,0.2681,0.2687,0.2678,0.2677,0.2685,0.2671,0.2669,0.2678,0.2678,0.2664,0.2661,0.2643,0.2651,0.2649,0.2671,0.263,0.2665,0.2668,0.267,0.2717,0.2724,0.273,0,0,0,0,0,0.2681,0.2684,0.2687,0.2687,0.2683,0.2686,0.2686,0.268,0.2679,0.2685,0.2681,0.2662,0.2668,0.2652,0.2649,0.2671,0.2664,0.2667,0.267,0.2714,0.2723,0.273,0,0,0,0,0,0,0.2681,0.2682,0.2685,0.2688,0.2694,0.2685,0.2691,0.2691,0.2691,0.2694,0.2674,0.2672,0.2692,0.2677,0.2661,0.2693,0.2665,0.2668,0.27,0.2707,0.2714,0.2728,0.263,0,0,0,0,0,0.2686,0.2691,0.2693,0.2698,0.2703,0.2702,0.2705,0.2705,0.2703,0.2704,0.2696,0.2695,0.2701,0.2701,0.2701,0.2712,0.2722,0.2728,0.2735,0.274,0.2752,0.2795,0.2806,0.2683,0.2683,0.2683,0,0,0.2687,0.2691,0.2692,0.27,0.2703,0.2713,0.2703,0.2714,0.2725,0.2702,0.2716,0.2718,0.2712,0.2728,0.2736,0.2718,0.2781,0.2745,0.2749,0.2758,0.2799,0.2811,0.2822,0.2685,0.2684,0.2684,0,0,0.269,0.2697,0.2702,0.2712,0.2727,0.2729,0.2739,0.2742,0.2747,0.2762,0.2757,0.2777,0.2772,0.2779,0.278,0.2825,0.2818,0.2826,0.2864,0.2905,0.2915,0.2925,0.2951,0.2962,0.2824,0.2824,0.2824,0,0.2694,0.2698,0.2706,0.2717,0.2726,0.2741,0.2751,0.2762,0.277,0.2786,0.2775,0.2808,0.2799,0.2835,0.285,0.284,0.2858,0.2831,0.2914,0.2923,0.2932,0.2956,0.2968,0.2827,0.2827,0.2827,0.2826,0,0.2697,0.2709,0.2715,0.2735,0.2748,0.2761,0.278,0.2802,0.2814,0.2829,0.2872,0.287,0.2894,0.2896,0.2882,0.2944,0.2935,0.292,0.2892,0.2947,0.2969,0.2981,0.2831,0.283,0.2829,0.2829,0,0,0.2681,0.271,0.2714,0.2724,0.2758,0.2765,0.2803,0.2837,0.2871,0.2893,0.2935,0.2957,0.2974,0.2979,0.2976,0.3007,0.3078,0.2993,0.2993,0.3016,0.3168,0.3098,0.3104,0.308,0.3082,0.3084,0.3157,0,0.2681,0.2698,0.2717,0.2741,0.275,0.2785,0.2819,0.2859,0.2896,0.2944,0.2975,0.3013,0.3001,0.3019,0.3055,0.3077,0.3111,0.3059,0.3113,0.3115,0.3045,0.3116,0.2857,0.2896,0.3168,0.317,0.3171,0,0.267,0.2685,0.2702,0.2742,0.2751,0.2775,0.2838,0.2872,0.2955,0.2989,0.3051,0.3076,0.314,0.3112,0.3196,0.3166,0.3178,0.3186,0.3189,0.3117,0.3067,0.2886,0.2906,0.319,0.3189,0.3187,0.3186,0,0.2635,0.2671,0.2683,0.2695,0.2747,0.2771,0.2809,0.2887,0.2934,0.3028,0.3078,0.3152,0.3201,0.3238,0.3266,0.3241,0.3348,0.331,0.3259,0.3253,0.3039,0.3011,0.3371,0.337,0.337,0.337,0.337,0,0.2613,0.2622,0.2669,0.2674,0.2706,0.2753,0.2808,0.2866,0.2963,0.3022,0.3103,0.3163,0.324,0.3302,0.3306,0.3329,0.3387,0.3287,0.3278,0.3048,0.3022,0.3277,0.3265,0.3373,0.3372,0.3372,0.3371,0,0.2563,0.2593,0.2609,0.2665,0.2687,0.271,0.2801,0.2842,0.2951,0.3033,0.3068,0.3203,0.3285,0.3342,0.3411,0.338,0.3398,0.3385,0.3108,0.3065,0.3263,0.3253,0.3339,0.3337,0.3336,0.3334,0.3333,0,0.2533,0.2537,0.2591,0.2602,0.2627,0.2676,0.2709,0.2821,0.2868,0.3039,0.3067,0.3202,0.3259,0.3356,0.3326,0.3334,0.3394,0.309,0.299,0.3283,0.3265,0.3257,0.3249,0.2725,0.2719,0.2714,0.271,0,0.2479,0.2503,0.2517,0.2544,0.2572,0.2604,0.2662,0.2698,0.2824,0.2899,0.2997,0.3066,0.3179,0.308,0.3116,0.3077,0.3067,0.2993,0.3384,0.2775,0.271,0.2691,0.2702,0.2667,0.2672,0.2675,0.2677,0.2679,0.2436,0.2431,0.2453,0.2466,0.2495,0.2501,0.2489,0.2555,0.2606,0.2677,0.2827,0.2841,0.2892,0.2812,0.2728,0.2658,0.2866,0.2722,0.2734,0.2751,0.267,0.2606,0.2528,0.2531,0.2534,0.2537,0.2539,0,0.2362,0.2361,0.2371,0.2366,0.2343,0.2405,0.2423,0.238,0.237,0.2477,0.2535,0.2357,0.2316,0.236,0.219,0.2192,0.2142,0.2097,0.2003,0.2049,0.2089,0.1969,0.1644,0.1641,0.1638,0.1635,0,0,0.2321,0.2286,0.228,0.2206,0.2207,0.2133,0.2115,0.2077,0.2098,0.2066,0.2055,0.224,0.2313,0.1953,0.1908,0.1744,0.1879,0.1675,0.2401,0.2338,0.2374,0.2466,0.2338,0,0,0,0,0]},{"header":{"parameterUnit":"m.s-1","parameterCategory":2,"la1":30.2991,"la2":30.254,"lo1":-89.0895,"lo2":-89.0444,"dy":0.0017,"dx":0.0017,"nx":28,"ny":28,"refTime":"2025-11-05T03:00:00:Z","depth":"2","parameterNumber":3,"parameterNumberName":"V-component_of_CURRENTS"},"data":[0,0,0,0,0,0,0,0,0,0,0,0,0,0,0,0,0,0,0,0,0,0,0,0,0,0,0,0,0,0,0,0,0,0,0,0,0,0,0,0,0,0,0,0,0,0,0,0,0,0,0,0,0,0,0,0,0,0,0.0293,0.0293,0,0.0254,0.0253,0.0253,0.0232,0.0232,0.0232,0.0232,0.0182,0.0181,0.018,0,0,0,0,0,0,0,0,0,0,0,0,0,0.0295,0.0295,0.0293,0.0293,0.0292,0.0254,0.0253,0.0253,0.0232,0.0232,0.0232,0.0232,0.0183,0.0181,0.018,0,0,0,0,0,0,0,0,0,0,0,0,0,0.0278,0.0295,0.0293,0.0278,0.0276,0.0254,0.0253,0.0252,0.0232,0.0232,0.0232,0.0233,0.0183,0.0181,0.0179,0.0165,0,0,0.0173,0.0172,0,0,0,0,0,0,0,0,0.0279,0.0278,0.0281,0.0279,0.0277,0.0249,0.0236,0.0223,0.0232,0.0248,0.0232,0.0233,0.0204,0.02,0.0192,0.0162,0.016,0.0173,0.0172,0.0171,0.017,0,0,0,0,0,0,0,0.028,0.0279,0.0276,0.028,0.0278,0.0255,0.0253,0.0233,0.0225,0.0247,0.0245,0.0242,0.0203,0.0194,0.019,0.016,0.0173,0.0171,0.017,0.0169,0.0123,0.0124,0,0,0,0,0,0,0.029,0.028,0.0278,0.0275,0.0279,0.0255,0.0252,0.0257,0.0225,0.0221,0.0242,0.0242,0.0197,0.0193,0.0188,0.0189,0.0171,0.0169,0.0168,0.0123,0.0123,0.0124,0,0,0,0,0,0,0.029,0.029,0.0279,0.0277,0.0274,0.0255,0.026,0.0256,0.025,0.0223,0.0218,0.0241,0.0197,0.0191,0.0178,0.0186,0.0168,0.0166,0.0123,0.0123,0.0123,0.0176,0,0,0,0,0,0,0.0291,0.0291,0.0296,0.0278,0.0275,0.0274,0.026,0.0255,0.0249,0.0248,0.022,0.0215,0.0197,0.0182,0.0176,0.0183,0.0164,0.0123,0.0123,0.0123,0.0175,0.0178,0.0181,0,0,0,0,0,0.0291,0.0302,0.0297,0.0296,0.0284,0.0275,0.0271,0.0256,0.0249,0.025,0.0232,0.0216,0.0178,0.018,0.0174,0.018,0.0123,0.0123,0.0123,0.0173,0.0178,0.0181,0,0,0,0,0,0,0.0303,0.03,0.0294,0.0303,0.0293,0.0272,0.0271,0.026,0.0245,0.0244,0.0217,0.0212,0.0201,0.0181,0.0184,0.0165,0.0147,0.0146,0.0187,0.0191,0.0194,0.0215,0.0163,0,0,0,0,0,0.0309,0.0318,0.0306,0.0312,0.0309,0.029,0.0284,0.0275,0.026,0.0254,0.0234,0.0212,0.0195,0.0187,0.0167,0.0158,0.0137,0.0156,0.016,0.0163,0.0175,0.0147,0.0149,0.0124,0.0124,0.0124,0,0,0.0314,0.0314,0.0318,0.0315,0.0305,0.0311,0.0287,0.0283,0.0287,0.025,0.0249,0.0223,0.0194,0.0186,0.0179,0.0172,0.0157,0.0163,0.0166,0.0176,0.0147,0.015,0.0152,0.0124,0.0124,0.0124,0,0,0.0333,0.033,0.0345,0.0342,0.0334,0.0325,0.0328,0.031,0.0303,0.0295,0.027,0.0253,0.0224,0.021,0.0197,0.0206,0.0174,0.0195,0.0232,0.0205,0.0207,0.0209,0.0181,0.018,0.0199,0.0199,0.0199,0,0.0339,0.0359,0.0345,0.0359,0.0364,0.0337,0.0355,0.0342,0.0322,0.0323,0.0303,0.0266,0.0238,0.0235,0.0236,0.0216,0.0194,0.0222,0.0211,0.0212,0.0213,0.0184,0.0182,0.0202,0.0202,0.0201,0.0201,0,0.037,0.0386,0.0393,0.0407,0.0408,0.0418,0.0404,0.0399,0.0384,0.0374,0.0362,0.032,0.0302,0.0285,0.0263,0.0257,0.0238,0.0217,0.0205,0.0219,0.0187,0.0184,0.0205,0.0205,0.0204,0.0203,0,0,0.0391,0.0414,0.0417,0.0438,0.0438,0.0447,0.0451,0.0456,0.0473,0.0435,0.0449,0.0404,0.0381,0.0365,0.033,0.0304,0.0282,0.0268,0.0266,0.0249,0.0222,0.02,0.0194,0.026,0.026,0.026,0.0196,0,0.0423,0.0467,0.0467,0.0508,0.0531,0.0515,0.0529,0.0527,0.0517,0.0522,0.0471,0.0468,0.0412,0.0406,0.037,0.031,0.0278,0.0302,0.0204,0.0201,0.0186,0.0191,0.0207,0.0151,0.0193,0.0193,0.0192,0,0.0458,0.0486,0.0534,0.0574,0.0583,0.06,0.0628,0.064,0.0632,0.0625,0.0603,0.0563,0.0523,0.0469,0.0371,0.0389,0.0312,0.0256,0.0252,0.0214,0.0174,0.0143,0.0144,0.0187,0.0187,0.0188,0.0188,0,0.0493,0.0537,0.0582,0.0594,0.0627,0.0644,0.0663,0.0671,0.0704,0.0694,0.071,0.0646,0.0626,0.052,0.0394,0.0383,0.0282,0.025,0.0156,0.0153,0.014,0.0136,0.0177,0.0177,0.0177,0.0177,0.0178,0,0.0534,0.057,0.0603,0.0628,0.0691,0.0694,0.076,0.0764,0.0793,0.0847,0.0771,0.079,0.0638,0.0556,0.0426,0.0287,0.0301,0.0167,0.0138,0.0157,0.0156,0.0166,0.0166,0.0175,0.0175,0.0176,0.0176,0,0.0567,0.0585,0.0644,0.0689,0.0709,0.0756,0.0833,0.0884,0.0894,0.0958,0.0958,0.0903,0.0799,0.0634,0.047,0.0343,0.0201,0.0144,0.0176,0.0151,0.0081,0.0084,0.0036,0.0035,0.0034,0.0033,0.0032,0,0.059,0.0622,0.0694,0.0739,0.0762,0.0834,0.0892,0.0933,0.0999,0.1034,0.1074,0.0991,0.0953,0.0698,0.046,0.0228,0.0197,0.0083,0.0061,0.0092,0.0067,0.0072,0.0076,0.0059,0.0059,0.0058,0.0058,0,0.0635,0.0657,0.0707,0.0801,0.0868,0.096,0.1044,0.1111,0.1166,0.1216,0.1261,0.1228,0.099,0.0761,0.0437,0.0277,0.0119,0.0068,0.0094,0.0095,0.0109,0.0087,0.0091,0.0055,0.0055,0.0055,0.0056,0.0056,0.067,0.0714,0.0779,0.0871,0.0955,0.1066,0.1151,0.1245,0.1352,0.1425,0.1396,0.1348,0.1085,0.0674,0.0393,0.0094,0.011,-0.0001,0.0002,0.0005,0.0022,0.0033,-0.0032,-0.0032,-0.0032,-0.0032,-0.0033,0,0.0713,0.0764,0.0848,0.0955,0.1054,0.1096,0.1242,0.1325,0.1453,0.1506,0.1537,0.1282,0.102,0.071,0.0268,0.001,-0.0007,-0.0077,-0.004,-0.0035,-0.0031,-0.0015,-0.008,-0.008,-0.0081,-0.0082,0,0,0.0736,0.0815,0.0856,0.1014,0.1098,0.1237,0.1325,0.144,0.1511,0.1563,0.1535,0.148,0.1106,0.0781,0.0427,0.0171,0.0128,0.0119,0.0185,0.0274,0.0282,0.0039,0.0073,0,0,0,0,0]}],[{"header":{"parameterUnit":"m.s-1","parameterCategory":2,"la1":30.2991,"la2":30.254,"lo1":-89.0895,"lo2":-89.0444,"dy":0.0017,"dx":0.0017,"nx":28,"ny":28,"refTime":"2025-11-05T03:00:00:Z","depth":"4","parameterNumber":2,"parameterNumberName":"U-component_of_CURRENTS"},"data":[0,0,0,0,0,0,0,0,0,0,0,0,0,0,0,0,0,0,0,0,0,0,0,0,0,0,0,0,0,0,0,0,0,0,0,0,0,0,0,0,0,0,0,0,0,0,0,0,0,0,0,0,0,0,0,0,0,0,0.1707,0.1707,0,0.1742,0.1742,0.1743,0.1778,0.1779,0.178,0.178,0.1823,0.1823,0.1824,0,0,0,0,0,0,0,0,0,0,0,0,0,0.1652,0.1653,0.1707,0.1707,0.1708,0.1742,0.1743,0.1743,0.1778,0.1779,0.178,0.1781,0.1823,0.1823,0.1824,0,0,0,0,0,0,0,0,0,0,0,0,0,0.1678,0.1653,0.1707,0.1732,0.1735,0.1742,0.1743,0.1743,0.1778,0.1779,0.178,0.1781,0.1822,0.1823,0.1824,0.1806,0,0,0.1826,0.1826,0,0,0,0,0,0,0,0,0.1676,0.168,0.1727,0.173,0.1733,0.1759,0.1739,0.1765,0.1778,0.1759,0.178,0.1782,0.1803,0.1805,0.1806,0.1808,0.181,0.1826,0.1826,0.1827,0.1827,0,0,0,0,0,0,0,0.1675,0.1678,0.1718,0.1728,0.1732,0.1736,0.174,0.1744,0.1772,0.176,0.1764,0.1772,0.1804,0.1805,0.1807,0.1811,0.1826,0.1826,0.1827,0.1827,0.1908,0.191,0,0,0,0,0,0,0.1675,0.1676,0.1717,0.1719,0.171,0.1736,0.1741,0.1748,0.1772,0.1778,0.1771,0.1773,0.1803,0.1806,0.1809,0.1881,0.1827,0.1827,0.1828,0.1906,0.1908,0.191,0,0,0,0,0,0,0.1674,0.1678,0.1716,0.1701,0.1706,0.1736,0.1743,0.1748,0.1786,0.1781,0.1786,0.1809,0.1804,0.1808,0.1847,0.188,0.1828,0.1828,0.1904,0.1907,0.1909,0.1967,0,0,0,0,0,0,0.1672,0.1677,0.17,0.1701,0.1707,0.1743,0.1742,0.1748,0.1788,0.1793,0.1814,0.1817,0.1805,0.1846,0.1848,0.188,0.1829,0.1902,0.1905,0.1908,0.1963,0.1972,0.1979,0,0,0,0,0,0.167,0.1687,0.1701,0.1707,0.1731,0.1744,0.1748,0.177,0.179,0.1809,0.183,0.1818,0.1868,0.1848,0.1849,0.1882,0.19,0.1904,0.1908,0.196,0.197,0.1979,0,0,0,0,0,0,0.1674,0.1692,0.1708,0.1731,0.175,0.1752,0.1778,0.1792,0.1823,0.1841,0.1836,0.184,0.1888,0.1879,0.1857,0.1917,0.1884,0.1888,0.1923,0.1932,0.194,0.1944,0.1829,0,0,0,0,0,0.1686,0.1709,0.1721,0.1746,0.1759,0.1778,0.1794,0.181,0.1829,0.1846,0.1861,0.1881,0.1898,0.1912,0.1923,0.1953,0.1954,0.1977,0.1985,0.1992,0.1998,0.2034,0.2045,0.1923,0.1923,0.1923,0,0,0.1696,0.1711,0.1725,0.1751,0.177,0.1789,0.1791,0.1827,0.1852,0.1844,0.1897,0.1912,0.1913,0.1949,0.1969,0.195,0.2029,0.1997,0.2002,0.2005,0.2039,0.2051,0.2061,0.1926,0.1925,0.1925,0,0,0.1711,0.1742,0.1761,0.178,0.1816,0.1825,0.1845,0.1871,0.1897,0.194,0.1946,0.1984,0.2008,0.2016,0.202,0.2078,0.2071,0.209,0.213,0.2165,0.2175,0.2184,0.2205,0.2216,0.2091,0.2092,0.2092,0,0.1728,0.1748,0.1771,0.1792,0.1813,0.1846,0.1868,0.1894,0.1934,0.1961,0.197,0.2032,0.2037,0.2075,0.2098,0.2096,0.2113,0.2091,0.2175,0.2184,0.2192,0.2211,0.2222,0.2095,0.2094,0.2094,0.2094,0,0.174,0.1775,0.179,0.1827,0.1853,0.1882,0.1913,0.1957,0.1998,0.2021,0.2088,0.2103,0.214,0.215,0.2141,0.2204,0.2197,0.2181,0.2148,0.2208,0.2224,0.2234,0.2099,0.2098,0.2097,0.2097,0,0,0.173,0.1788,0.1799,0.1822,0.1876,0.1891,0.1949,0.1996,0.2044,0.2096,0.2152,0.2191,0.222,0.2227,0.2233,0.2261,0.2333,0.2254,0.2254,0.227,0.2414,0.2257,0.2252,0.2339,0.2341,0.2342,0.2403,0,0.1737,0.1778,0.1808,0.1857,0.1877,0.1929,0.1974,0.203,0.2085,0.215,0.219,0.2248,0.2243,0.2277,0.2309,0.2331,0.2362,0.2318,0.2358,0.2359,0.2208,0.2259,0.2349,0.241,0.2412,0.2414,0.2415,0,0.1731,0.1761,0.1807,0.187,0.1886,0.1928,0.2011,0.2058,0.2152,0.2201,0.2273,0.2309,0.2377,0.2359,0.2435,0.2413,0.2425,0.2431,0.2433,0.2271,0.222,0.2339,0.2433,0.2431,0.243,0.2429,0.2428,0,0.1689,0.1756,0.1795,0.1816,0.1894,0.1939,0.1993,0.2084,0.2136,0.2249,0.2304,0.2382,0.244,0.2474,0.2502,0.2484,0.2571,0.2539,0.2407,0.2396,0.2493,0.2483,0.2589,0.2589,0.2589,0.2589,0.2589,0,0.166,0.1696,0.1788,0.1807,0.1867,0.1931,0.2008,0.2078,0.2184,0.2241,0.2338,0.2388,0.2477,0.2531,0.2536,0.2503,0.2604,0.242,0.2402,0.2517,0.2508,0.25,0.2489,0.2591,0.2591,0.259,0.259,0,0.16,0.1663,0.1712,0.1811,0.1849,0.1895,0.2014,0.2059,0.218,0.2262,0.2305,0.2428,0.2489,0.2549,0.2607,0.2532,0.252,0.2483,0.2613,0.26,0.2313,0.2305,0.233,0.2325,0.232,0.2317,0.2314,0,0.1566,0.159,0.1706,0.1739,0.1792,0.1874,0.1922,0.2048,0.2091,0.2256,0.2275,0.2396,0.2453,0.2415,0.2489,0.2487,0.2455,0.243,0.2353,0.2307,0.2288,0.2287,0.2284,0.2307,0.2306,0.2305,0.2304,0,0.15,0.1564,0.1606,0.1678,0.1739,0.1788,0.1869,0.189,0.2021,0.2155,0.2187,0.2215,0.228,0.2312,0.2335,0.2326,0.2431,0.2385,0.2393,0.232,0.228,0.2265,0.2268,0.2289,0.2291,0.2292,0.2293,0,0.146,0.1474,0.1543,0.1589,0.166,0.1669,0.1727,0.1766,0.1828,0.2001,0.2009,0.2132,0.2256,0.223,0.2249,0.2232,0.2185,0.2095,0.2117,0.2134,0.204,0.1959,0.1858,0,0,0,0,0,0.1405,0.1403,0.1441,0.1472,0.1534,0.1576,0.1669,0.1726,0.1856,0.1825,0.191,0.1954,0.1982,0.2053,0.1993,0.216,0.2196,0.208,0.2105,0.2207,0.2224,0.2129,0,0,0,0,0,0,0.1364,0.1399,0.1401,0.1364,0.1365,0.1412,0.1468,0.1558,0.1545,0.1692,0.172,0.1831,0.1894,0.1997,0.1956,0.1974,0.1946,0.2163,0.2157,0.2198,0.2213,0.2227,0.2135,0,0,0,0,0]},{"header":{"parameterUnit":"m.s-1","parameterCategory":2,"la1":30.2991,"la2":30.254,"lo1":-89.0895,"lo2":-89.0444,"dy":0.0017,"dx":0.0017,"nx":28,"ny":28,"refTime":"2025-11-05T03:00:00:Z","depth":"4","parameterNumber":3,"parameterNumberName":"V-component_of_CURRENTS"},"data":[0,0,0,0,0,0,0,0,0,0,0,0,0,0,0,0,0,0,0,0,0,0,0,0,0,0,0,0,0,0,0,0,0,0,0,0,0,0,0,0,0,0,0,0,0,0,0,0,0,0,0,0,0,0,0,0,0,0,0.0248,0.0248,0,0.0229,0.0229,0.0228,0.0225,0.0225,0.0225,0.0226,0.0202,0.0201,0.0201,0,0,0,0,0,0,0,0,0,0,0,0,0,0.0245,0.0245,0.0249,0.0248,0.0248,0.0229,0.0229,0.0228,0.0225,0.0225,0.0225,0.0226,0.0203,0.0202,0.0201,0,0,0,0,0,0,0,0,0,0,0,0,0,0.0237,0.0245,0.0249,0.0244,0.0244,0.0229,0.0229,0.0228,0.0225,0.0225,0.0225,0.0226,0.0203,0.0202,0.02,0.0187,0,0,0.0197,0.0196,0,0,0,0,0,0,0,0,0.0238,0.0238,0.0245,0.0245,0.0244,0.023,0.0219,0.0214,0.0225,0.0232,0.0226,0.0226,0.0211,0.0209,0.0204,0.0186,0.0185,0.0197,0.0196,0.0195,0.0195,0,0,0,0,0,0,0,0.0238,0.0238,0.024,0.0245,0.0244,0.023,0.023,0.0218,0.022,0.0231,0.0231,0.0229,0.0211,0.0206,0.0204,0.0184,0.0197,0.0196,0.0195,0.0194,0.0166,0.0166,0,0,0,0,0,0,0.0243,0.0239,0.0241,0.024,0.0242,0.023,0.023,0.0234,0.022,0.0218,0.0229,0.0229,0.0208,0.0205,0.0203,0.0208,0.0195,0.0194,0.0193,0.0166,0.0166,0.0166,0,0,0,0,0,0,0.0244,0.0244,0.0242,0.0239,0.0238,0.023,0.0235,0.0233,0.0235,0.0218,0.0217,0.0233,0.0208,0.0205,0.02,0.0206,0.0194,0.0193,0.0166,0.0166,0.0166,0.0204,0,0,0,0,0,0,0.0244,0.0244,0.025,0.0239,0.0238,0.024,0.0234,0.0233,0.0233,0.0233,0.022,0.0218,0.0208,0.0202,0.0199,0.0204,0.0192,0.0166,0.0166,0.0166,0.0202,0.0205,0.0207,0,0,0,0,0,0.0244,0.0252,0.0251,0.0251,0.0246,0.0241,0.0239,0.0234,0.0233,0.0236,0.0228,0.0219,0.0199,0.0201,0.0197,0.0203,0.0166,0.0166,0.0166,0.0201,0.0204,0.0207,0,0,0,0,0,0,0.0252,0.0252,0.0251,0.0259,0.0253,0.024,0.0242,0.0238,0.0233,0.0235,0.022,0.0217,0.0214,0.0201,0.0203,0.0193,0.0181,0.018,0.0209,0.0211,0.0214,0.0228,0.0191,0,0,0,0,0,0.0257,0.0265,0.0258,0.0265,0.0264,0.0254,0.0251,0.0248,0.0241,0.024,0.023,0.0219,0.0209,0.0206,0.0194,0.0189,0.0168,0.0189,0.0191,0.0193,0.0202,0.0171,0.0172,0.0166,0.0166,0.0166,0,0,0.0261,0.0262,0.0267,0.0267,0.0263,0.0268,0.0253,0.0254,0.026,0.0237,0.0243,0.0227,0.0209,0.0206,0.0203,0.0198,0.0182,0.0193,0.0196,0.0203,0.0171,0.0172,0.0172,0.0166,0.0166,0.0166,0,0,0.0274,0.0276,0.0287,0.0287,0.0285,0.028,0.0283,0.0274,0.0273,0.0272,0.0258,0.0248,0.0233,0.0223,0.0215,0.0221,0.0195,0.0215,0.0241,0.0211,0.0212,0.0212,0.0181,0.0178,0.0218,0.0218,0.0218,0,0.0279,0.0295,0.0288,0.0299,0.0305,0.029,0.0304,0.0297,0.0288,0.029,0.028,0.0259,0.0242,0.0239,0.0242,0.0228,0.0206,0.0234,0.0215,0.0215,0.0214,0.0183,0.0179,0.0219,0.0219,0.0219,0.0219,0,0.03,0.0314,0.0321,0.0334,0.0337,0.0346,0.034,0.034,0.0334,0.0329,0.0323,0.0296,0.0286,0.0274,0.0261,0.0252,0.0235,0.0221,0.0211,0.0217,0.0183,0.0179,0.0222,0.0221,0.0221,0.022,0,0,0.031,0.0333,0.0336,0.0355,0.036,0.0368,0.0375,0.0381,0.0396,0.0372,0.0383,0.0355,0.0341,0.0331,0.0307,0.028,0.0252,0.0254,0.0251,0.0229,0.0184,0.0167,0.016,0.0233,0.0233,0.0232,0.0161,0,0.0331,0.0366,0.037,0.0404,0.0423,0.0417,0.0431,0.0433,0.0429,0.0433,0.0397,0.0399,0.0362,0.0361,0.0327,0.0275,0.0243,0.0272,0.0177,0.0175,0.0162,0.0155,0.0231,0.0157,0.0156,0.0156,0.0155,0,0.0353,0.0376,0.0415,0.0452,0.0461,0.0479,0.0505,0.0517,0.0512,0.051,0.0494,0.0467,0.0431,0.0397,0.0305,0.0325,0.0261,0.0212,0.0208,0.0178,0.0149,0.0149,0.0147,0.0147,0.0148,0.0148,0.0149,0,0.0371,0.041,0.0448,0.0459,0.0493,0.0512,0.0532,0.0543,0.0569,0.0562,0.0573,0.0521,0.0503,0.0413,0.0309,0.0307,0.0199,0.0182,0.0103,0.0101,0.0122,0.0123,0.0113,0.0114,0.0114,0.0114,0.0114,0,0.0393,0.0425,0.0463,0.0484,0.0538,0.0548,0.0605,0.0612,0.0636,0.0671,0.062,0.0624,0.0507,0.0429,0.0324,0.02,0.0207,0.0108,0.0082,0.0138,0.0142,0.0119,0.012,0.0111,0.0112,0.0112,0.0113,0,0.0407,0.0429,0.048,0.0527,0.055,0.0591,0.0663,0.0702,0.0714,0.0753,0.0755,0.0703,0.0603,0.0471,0.0326,0.023,0.0107,0.006,0.0132,0.011,0.0024,0.0028,-0.0033,-0.0034,-0.0035,-0.0036,-0.0037,0,0.0417,0.0443,0.0516,0.0556,0.0583,0.0649,0.07,0.074,0.0785,0.08,0.0819,0.0742,0.0684,0.047,0.0325,0.0117,0.0084,0.0014,0.0016,0.0028,0.0009,0.0015,0.002,-0.0038,-0.0039,-0.0039,-0.0039,0,0.0437,0.0465,0.0507,0.0592,0.0654,0.0731,0.0802,0.0839,0.0881,0.089,0.0871,0.0761,0.0646,0.0477,0.0313,0.0163,0.0055,0.0002,0.0003,0.0005,0.0021,0.0004,0.001,-0.0043,-0.0042,-0.0042,-0.0042,0,0.0455,0.0488,0.0549,0.0624,0.0706,0.0784,0.0824,0.0872,0.0915,0.0922,0.0914,0.0787,0.0721,0.0501,0.0351,0.0199,0.0158,0.01,0.0095,0.0097,0.0151,0.0191,0.0159,0,0,0,0,0,0.047,0.0509,0.0578,0.0659,0.0743,0.0795,0.088,0.0913,0.0947,0.094,0.093,0.0821,0.0604,0.052,0.0366,0.032,0.0123,0.0131,0.0052,-0.0062,-0.0058,-0.002,0,0,0,0,0,0,0.0479,0.054,0.0574,0.0676,0.0738,0.0835,0.0892,0.0918,0.0918,0.0925,0.0821,0.0768,0.0566,0.0691,0.0359,0.0314,0.0238,0.0036,0.0032,-0.0065,-0.0061,-0.0058,-0.0017,0,0,0,0,0]}]]